MLV356 LIMJ-LHBP

Flight info

Callsign MLV356
Flight time 1h 32m
Altitude 34000
Route GEN DCT GOLAS DCT KALIK DCT LURUT DCT CHI/N0391F330 DCT BARPI DCT KOPRY DCT ULZAK
Aircraft T134/M-SDRWY/C

Departure

Time 2026-04-23 12:19
Airport Genoa Cristoforo Colombo Airport (LIMJ)

Arrival

Time 2026-04-23 13:51
Airport Budapest Liszt Ferenc International Airport (LHBP)
Time Latitude Longitude Altitude Speed Heading
2026-04-23 11:59 44.41450 8.84487 26 ft 0 kts 323°
2026-04-23 12:09 44.41449 8.84488 28 ft 1 kts 324°
2026-04-23 12:10 44.41437 8.84501 28 ft 2 kts 323°
2026-04-23 12:10 44.41425 8.84513 28 ft 2 kts 323°
2026-04-23 12:10 44.41411 8.84522 28 ft 2 kts 346°
2026-04-23 12:10 44.41397 8.84525 27 ft 2 kts
2026-04-23 12:11 44.41382 8.84520 27 ft 2 kts 24°
2026-04-23 12:11 44.41370 8.84508 27 ft 2 kts 43°
2026-04-23 12:11 44.41364 8.84500 27 ft 1 kts 56°
2026-04-23 12:11 44.41359 8.84491 26 ft 0 kts 52°
2026-04-23 12:12 44.41359 8.84490 26 ft 0 kts 52°
2026-04-23 12:13 44.41359 8.84491 26 ft 0 kts 52°
2026-04-23 12:13 44.41380 8.84528 27 ft 9 kts 52°
2026-04-23 12:14 44.41416 8.84600 29 ft 0 kts 67°
2026-04-23 12:14 44.41417 8.84614 29 ft 2 kts 104°
2026-04-23 12:14 44.41407 8.84667 29 ft 9 kts 106°
2026-04-23 12:14 44.41382 8.84784 30 ft 16 kts 107°
2026-04-23 12:15 44.41351 8.84919 30 ft 5 kts 119°
2026-04-23 12:15 44.41297 8.84939 29 ft 11 kts 188°
2026-04-23 12:15 44.41208 8.84913 29 ft 14 kts 195°
2026-04-23 12:15 44.41110 8.84861 28 ft 16 kts 198°
2026-04-23 12:16 44.41049 8.84960 27 ft 16 kts 108°
2026-04-23 12:16 44.41016 8.85123 26 ft 18 kts 106°
2026-04-23 12:16 44.40975 8.85308 25 ft 21 kts 109°
2026-04-23 12:16 44.40929 8.85521 23 ft 24 kts 108°
2026-04-23 12:17 44.40887 8.85752 21 ft 19 kts 104°
2026-04-23 12:17 44.40875 8.85902 20 ft 6 kts 81°
2026-04-23 12:17 44.40854 8.85896 20 ft 6 kts 279°
2026-04-23 12:17 44.40855 8.85887 20 ft 0 kts 283°
2026-04-23 12:18 44.40858 8.85869 20 ft 2 kts 284°
2026-04-23 12:18 44.40920 8.85575 22 ft 70 kts 285°
2026-04-23 12:18 44.41114 8.84583 27 ft 137 kts 285°
2026-04-23 12:18 44.41416 8.83073 159 ft 176 kts 284°
2026-04-23 12:19 44.41824 8.81286 520 ft 204 kts 287°
2026-04-23 12:19 44.42199 8.79480 1584 ft 193 kts 287°
2026-04-23 12:19 44.42547 8.77590 2115 ft 210 kts 277°
2026-04-23 12:19 44.41925 8.75773 2294 ft 234 kts 209°
2026-04-23 12:20 44.40347 8.75454 2881 ft 233 kts 165°
2026-04-23 12:20 44.38779 8.76325 3076 ft 255 kts 153°
2026-04-23 12:20 44.37134 8.77476 3283 ft 274 kts 153°
2026-04-23 12:20 44.35428 8.78519 4250 ft 260 kts 158°
2026-04-23 12:21 44.33648 8.79157 4675 ft 274 kts 171°
2026-04-23 12:21 44.31659 8.79384 4906 ft 291 kts 178°
2026-04-23 12:21 44.29743 8.79515 5999 ft 270 kts 167°
2026-04-23 12:21 44.28052 8.80595 6335 ft 277 kts 134°
2026-04-23 12:22 44.27084 8.82835 6812 ft 268 kts 98°
2026-04-23 12:22 44.27209 8.85271 7540 ft 255 kts 65°
2026-04-23 12:22 44.28255 8.87310 7699 ft 267 kts 42°
2026-04-23 12:22 44.29708 8.88915 8286 ft 267 kts 36°
2026-04-23 12:23 44.31215 8.90459 8783 ft 271 kts 37°
2026-04-23 12:23 44.32738 8.92009 9316 ft 273 kts 36°
2026-04-23 12:23 44.34306 8.93522 9855 ft 275 kts 34°
2026-04-23 12:23 44.35854 8.95008 10649 ft 266 kts 35°
2026-04-23 12:24 44.37387 8.96481 11141 ft 268 kts 36°
2026-04-23 12:24 44.38937 8.97975 11479 ft 278 kts 36°
2026-04-23 12:24 44.40555 8.99564 11805 ft 289 kts 40°
2026-04-23 12:24 44.41846 9.01702 12359 ft 291 kts 62°
2026-04-23 12:25 44.42469 9.04378 12924 ft 295 kts 81°
2026-04-23 12:25 44.42466 9.07244 13500 ft 298 kts 91°
2026-04-23 12:25 44.42528 9.10128 14076 ft 298 kts 82°
2026-04-23 12:25 44.42694 9.13002 14662 ft 299 kts 84°
2026-04-23 12:26 44.42872 9.15902 15235 ft 300 kts 83°
2026-04-23 12:26 44.43043 9.18794 15770 ft 303 kts 83°
2026-04-23 12:26 44.43225 9.21761 16251 ft 307 kts 83°
2026-04-23 12:26 44.43401 9.24729 16673 ft 312 kts 83°
2026-04-23 12:27 44.43585 9.27760 17067 ft 318 kts 83°
2026-04-23 12:27 44.43771 9.30867 17480 ft 323 kts 83°
2026-04-23 12:27 44.43959 9.34048 17914 ft 327 kts 83°
2026-04-23 12:27 44.44146 9.37224 18363 ft 331 kts 83°
2026-04-23 12:28 44.44335 9.40441 18812 ft 334 kts 83°
2026-04-23 12:28 44.44523 9.43639 19258 ft 336 kts 83°
2026-04-23 12:28 44.44716 9.46939 19718 ft 338 kts 83°
2026-04-23 12:28 44.44903 9.50180 20168 ft 340 kts 83°
2026-04-23 12:29 44.45096 9.53515 20630 ft 341 kts 83°
2026-04-23 12:29 44.45285 9.56817 21083 ft 343 kts 83°
2026-04-23 12:29 44.45472 9.60085 21528 ft 344 kts 83°
2026-04-23 12:29 44.45665 9.63462 21991 ft 345 kts 83°
2026-04-23 12:30 44.45873 9.66823 22453 ft 346 kts 83°
2026-04-23 12:30 44.46075 9.70175 22910 ft 347 kts 83°
2026-04-23 12:30 44.46277 9.73521 23359 ft 348 kts 83°
2026-04-23 12:30 44.46479 9.76916 23750 ft 351 kts 84°
2026-04-23 12:31 44.46682 9.80330 24155 ft 354 kts 84°
2026-04-23 12:31 44.46885 9.83776 24582 ft 356 kts 84°
2026-04-23 12:31 44.47084 9.87204 25007 ft 357 kts 84°
2026-04-23 12:31 44.47272 9.90684 25442 ft 359 kts 84°
2026-04-23 12:32 44.47463 9.94156 25862 ft 360 kts 84°
2026-04-23 12:32 44.47656 9.97683 26294 ft 361 kts 84°
2026-04-23 12:32 44.47847 10.01185 26644 ft 364 kts 84°
2026-04-23 12:32 44.48041 10.04743 26949 ft 368 kts 84°
2026-04-23 12:33 44.48235 10.08312 27266 ft 372 kts 84°
2026-04-23 12:33 44.48430 10.11929 27589 ft 374 kts 84°
2026-04-23 12:33 44.48624 10.15568 27924 ft 377 kts 84°
2026-04-23 12:33 44.48819 10.19235 28267 ft 378 kts 84°
2026-04-23 12:34 44.49012 10.22900 28676 ft 378 kts 84°
2026-04-23 12:34 44.49203 10.26553 29096 ft 376 kts 84°
2026-04-23 12:34 44.49390 10.30171 29497 ft 374 kts 84°
2026-04-23 12:34 44.49575 10.33782 29885 ft 372 kts 84°
2026-04-23 12:35 44.49759 10.37382 30195 ft 372 kts 84°
2026-04-23 12:35 44.49940 10.40963 30492 ft 372 kts 84°
2026-04-23 12:35 44.50125 10.44607 30683 ft 375 kts 84°
2026-04-23 12:35 44.50310 10.48265 30831 ft 378 kts 84°
2026-04-23 12:36 44.50496 10.51948 30994 ft 381 kts 84°
2026-04-23 12:36 44.50680 10.55648 31159 ft 383 kts 84°
2026-04-23 12:36 44.50868 10.59426 31342 ft 385 kts 84°
2026-04-23 12:36 44.51051 10.63137 31523 ft 387 kts 84°
2026-04-23 12:37 44.51235 10.66909 31709 ft 388 kts 85°
2026-04-23 12:37 44.51420 10.70729 31904 ft 389 kts 85°
2026-04-23 12:37 44.51601 10.74506 32103 ft 390 kts 85°
2026-04-23 12:37 44.51784 10.78349 32301 ft 391 kts 84°
2026-04-23 12:38 44.51962 10.82125 32505 ft 392 kts 85°
2026-04-23 12:38 44.52118 10.85463 32681 ft 393 kts 85°
2026-04-23 12:38 44.52297 10.89307 32882 ft 394 kts 85°
2026-04-23 12:38 44.52472 10.93130 33077 ft 394 kts 85°
2026-04-23 12:39 44.52638 10.96719 33261 ft 395 kts 84°
2026-04-23 12:39 44.53139 11.00403 33436 ft 395 kts 70°
2026-04-23 12:39 44.54388 11.03874 33624 ft 396 kts 56°
2026-04-23 12:39 44.56117 11.06850 33819 ft 398 kts 53°
2026-04-23 12:40 44.57704 11.10013 34014 ft 397 kts 58°
2026-04-23 12:40 44.59210 11.13268 34204 ft 397 kts 59°
2026-04-23 12:40 44.62108 11.19909 34224 ft 403 kts 59°
2026-04-23 12:41 44.65051 11.26729 34229 ft 415 kts 59°
2026-04-23 12:41 44.68034 11.33663 34229 ft 414 kts 59°
2026-04-23 12:42 44.70999 11.40590 34229 ft 414 kts 59°
2026-04-23 12:42 44.73957 11.47517 34226 ft 415 kts 59°
2026-04-23 12:43 44.76911 11.54448 34204 ft 414 kts 59°
2026-04-23 12:43 44.78383 11.57908 33868 ft 413 kts 59°
2026-04-23 12:43 44.79847 11.61365 33684 ft 410 kts 59°
2026-04-23 12:44 44.81301 11.64801 33443 ft 409 kts 59°
2026-04-23 12:44 44.82753 11.68238 33256 ft 405 kts 60°
2026-04-23 12:44 44.84183 11.71631 33153 ft 403 kts 60°
2026-04-23 12:44 44.85611 11.75018 33199 ft 404 kts 59°
2026-04-23 12:45 44.88485 11.81831 33207 ft 406 kts 59°
2026-04-23 12:45 44.91043 11.87912 33206 ft 405 kts 59°
2026-04-23 12:46 44.93818 11.94531 33205 ft 405 kts 59°
2026-04-23 12:46 44.96703 12.01420 33201 ft 406 kts 59°
2026-04-23 12:47 44.99558 12.08254 33205 ft 406 kts 59°
2026-04-23 12:47 45.02428 12.15142 33199 ft 406 kts 59°
2026-04-23 12:48 45.05275 12.21989 33203 ft 406 kts 59°
2026-04-23 12:48 45.08043 12.28952 33199 ft 406 kts 67°
2026-04-23 12:49 45.09237 12.32554 33199 ft 406 kts 56°
2026-04-23 12:49 45.10887 12.35730 33213 ft 407 kts 56°
2026-04-23 12:49 45.13918 12.42492 33210 ft 406 kts 58°
2026-04-23 12:50 45.16817 12.49305 33206 ft 405 kts 58°
2026-04-23 12:50 45.19717 12.56174 33205 ft 405 kts 58°
2026-04-23 12:51 45.22596 12.63007 33206 ft 405 kts 58°
2026-04-23 12:51 45.25373 12.69621 33212 ft 405 kts 59°
2026-04-23 12:52 45.27654 12.75061 33206 ft 405 kts 59°
2026-04-23 12:52 45.30529 12.81937 33212 ft 405 kts 59°
2026-04-23 12:53 45.33386 12.88780 33207 ft 405 kts 59°
2026-04-23 12:53 45.36263 12.95691 33209 ft 405 kts 58°
2026-04-23 12:54 45.39133 13.02604 33204 ft 405 kts 58°
2026-04-23 12:54 45.41427 13.08139 33201 ft 405 kts 58°
2026-04-23 12:55 45.44291 13.15070 33198 ft 404 kts 58°
2026-04-23 12:55 45.47028 13.21706 33197 ft 405 kts 58°
2026-04-23 12:56 45.49896 13.28677 33194 ft 404 kts 58°
2026-04-23 12:56 45.52750 13.35633 33190 ft 404 kts 58°
2026-04-23 12:57 45.55584 13.42553 33194 ft 404 kts 58°
2026-04-23 12:57 45.58399 13.49442 33185 ft 404 kts 58°
2026-04-23 12:58 45.59675 13.53051 33188 ft 406 kts 69°
2026-04-23 12:58 45.60449 13.56902 33197 ft 407 kts 71°
2026-04-23 12:58 45.62057 13.64675 33184 ft 409 kts 70°
2026-04-23 12:59 45.63646 13.72339 33195 ft 408 kts 71°
2026-04-23 12:59 45.65259 13.80136 33194 ft 407 kts 71°
2026-04-23 13:00 45.66744 13.87349 33186 ft 408 kts 71°
2026-04-23 13:00 45.68337 13.95100 33183 ft 409 kts 71°
2026-04-23 13:01 45.69912 14.02788 33182 ft 409 kts 71°
2026-04-23 13:01 45.71502 14.10594 33179 ft 409 kts 71°
2026-04-23 13:02 45.73079 14.18357 33171 ft 409 kts 71°
2026-04-23 13:02 45.74666 14.26188 33174 ft 410 kts 71°
2026-04-23 13:03 45.76242 14.34008 33170 ft 410 kts 71°
2026-04-23 13:03 45.77815 14.41836 33173 ft 409 kts 71°
2026-04-23 13:04 45.79378 14.49657 33173 ft 410 kts 71°
2026-04-23 13:04 45.80949 14.57537 33176 ft 410 kts 71°
2026-04-23 13:05 45.82473 14.65218 33174 ft 411 kts 71°
2026-04-23 13:05 45.84038 14.73130 33177 ft 411 kts 71°
2026-04-23 13:06 45.86364 14.84971 33176 ft 411 kts 71°
2026-04-23 13:07 45.87695 14.91780 33177 ft 412 kts 71°
2026-04-23 13:07 45.89033 14.98633 33177 ft 412 kts 71°
2026-04-23 13:08 45.90578 15.06578 33176 ft 413 kts 71°
2026-04-23 13:08 45.92077 15.14363 33174 ft 411 kts 71°
2026-04-23 13:09 45.93603 15.22288 33170 ft 412 kts 71°
2026-04-23 13:09 45.95132 15.30248 33175 ft 413 kts 71°
2026-04-23 13:10 45.96646 15.38160 33175 ft 414 kts 71°
2026-04-23 13:10 45.98164 15.46132 33159 ft 413 kts 71°
2026-04-23 13:11 45.99675 15.54112 33166 ft 414 kts 71°
2026-04-23 13:11 46.01176 15.62080 33155 ft 413 kts 71°
2026-04-23 13:12 46.02674 15.70045 33161 ft 416 kts 72°
2026-04-23 13:12 46.04173 15.78044 33166 ft 415 kts 72°
2026-04-23 13:13 46.05667 15.86073 33165 ft 415 kts 72°
2026-04-23 13:13 46.07152 15.94079 33163 ft 416 kts 72°
2026-04-23 13:14 46.08403 16.00855 33166 ft 415 kts 72°
2026-04-23 13:14 46.09712 16.07984 33166 ft 416 kts 72°
2026-04-23 13:15 46.11115 16.15630 33169 ft 416 kts 72°
2026-04-23 13:15 46.12600 16.23784 33165 ft 416 kts 72°
2026-04-23 13:16 46.14037 16.31710 33156 ft 416 kts 72°
2026-04-23 13:16 46.15499 16.39811 33152 ft 416 kts 72°
2026-04-23 13:17 46.16949 16.47848 33149 ft 418 kts 72°
2026-04-23 13:17 46.18227 16.54980 33148 ft 417 kts 72°
2026-04-23 13:18 46.19674 16.63093 33147 ft 417 kts 72°
2026-04-23 13:18 46.21101 16.71111 33151 ft 418 kts 72°
2026-04-23 13:19 46.22539 16.79241 33149 ft 418 kts 73°
2026-04-23 13:19 46.23963 16.87332 33150 ft 418 kts 72°
2026-04-23 13:20 46.25222 16.95601 33093 ft 422 kts 83°
2026-04-23 13:20 46.25449 16.99218 32785 ft 420 kts 75°
2026-04-23 13:20 46.26373 17.03181 32332 ft 418 kts 61°
2026-04-23 13:20 46.27448 17.05756 32009 ft 418 kts 52°
2026-04-23 13:21 46.29693 17.09107 31508 ft 420 kts 37°
2026-04-23 13:21 46.32138 17.11421 31075 ft 420 kts 34°
2026-04-23 13:21 46.34320 17.14267 30636 ft 422 kts 49°
2026-04-23 13:21 46.36107 17.17650 30198 ft 423 kts 52°
2026-04-23 13:22 46.37637 17.20706 29805 ft 423 kts 53°
2026-04-23 13:22 46.39326 17.24659 29317 ft 425 kts 63°
2026-04-23 13:22 46.40370 17.28657 28880 ft 424 kts 64°
2026-04-23 13:22 46.41773 17.32318 28452 ft 422 kts 55°
2026-04-23 13:23 46.43355 17.35910 28030 ft 422 kts 54°
2026-04-23 13:23 46.45056 17.39381 27612 ft 422 kts 54°
2026-04-23 13:23 46.46672 17.42920 27160 ft 423 kts 53°
2026-04-23 13:23 46.48416 17.46216 25839 ft 414 kts 45°
2026-04-23 13:24 46.50523 17.49204 24284 ft 429 kts 45°
2026-04-23 13:24 46.52409 17.52275 25342 ft 395 kts 48°
2026-04-23 13:24 46.53992 17.55652 24354 ft 414 kts 62°
2026-04-23 13:24 46.55074 17.59522 23641 ft 423 kts 63°
2026-04-23 13:25 46.56525 17.63217 23182 ft 420 kts 54°
2026-04-23 13:25 46.58096 17.66845 22963 ft 416 kts 55°
2026-04-23 13:25 46.59710 17.70294 22741 ft 412 kts 53°
2026-04-23 13:25 46.61296 17.73704 22516 ft 409 kts 54°
2026-04-23 13:26 46.62914 17.77119 22286 ft 405 kts 53°
2026-04-23 13:26 46.64481 17.80459 22051 ft 400 kts 54°
2026-04-23 13:26 46.66052 17.83794 21806 ft 395 kts 54°
2026-04-23 13:26 46.67589 17.87071 21557 ft 391 kts 53°
2026-04-23 13:27 46.69133 17.90362 21303 ft 388 kts 54°
2026-04-23 13:27 46.70634 17.93565 21053 ft 385 kts 54°
2026-04-23 13:27 46.71564 17.95572 20894 ft 384 kts 55°
2026-04-23 13:27 46.72487 17.97654 20730 ft 382 kts 55°
2026-04-23 13:28 46.73823 18.00560 20430 ft 382 kts 53°
2026-04-23 13:28 46.75252 18.03645 19973 ft 385 kts 54°
2026-04-23 13:28 46.76761 18.06875 19509 ft 386 kts 53°
2026-04-23 13:28 46.78268 18.10109 19055 ft 387 kts 53°
2026-04-23 13:29 46.79779 18.13346 18610 ft 386 kts 53°
2026-04-23 13:29 46.81070 18.16120 18230 ft 384 kts 54°
2026-04-23 13:29 46.82560 18.19325 17924 ft 379 kts 53°
2026-04-23 13:29 46.84016 18.22468 17626 ft 375 kts 53°
2026-04-23 13:30 46.85480 18.25627 17318 ft 371 kts 53°
2026-04-23 13:30 46.86919 18.28737 17012 ft 368 kts 53°
2026-04-23 13:30 46.88344 18.31822 16704 ft 365 kts 53°
2026-04-23 13:30 46.89775 18.34918 16392 ft 363 kts 53°
2026-04-23 13:31 46.91157 18.37919 16066 ft 350 kts 53°
2026-04-23 13:31 46.92494 18.40833 15533 ft 339 kts 53°
2026-04-23 13:31 46.93778 18.43636 15001 ft 331 kts 53°
2026-04-23 13:31 46.95051 18.46418 14516 ft 326 kts 53°
2026-04-23 13:32 46.96300 18.49144 14046 ft 324 kts 52°
2026-04-23 13:32 46.97552 18.51871 13577 ft 321 kts 52°
2026-04-23 13:32 46.98790 18.54573 13111 ft 319 kts 52°
2026-04-23 13:32 47.00078 18.57215 12641 ft 314 kts 44°
2026-04-23 13:33 47.01762 18.59128 12176 ft 308 kts 25°
2026-04-23 13:33 47.03733 18.60347 11715 ft 305 kts 23°
2026-04-23 13:33 47.05599 18.61822 11257 ft 302 kts 27°
2026-04-23 13:33 47.07422 18.63311 10795 ft 294 kts 28°
2026-04-23 13:34 47.09148 18.64840 10328 ft 287 kts 28°
2026-04-23 13:34 47.10840 18.66330 10067 ft 274 kts 29°
2026-04-23 13:34 47.12411 18.67744 9938 ft 259 kts 29°
2026-04-23 13:34 47.14005 18.69169 9610 ft 271 kts 28°
2026-04-23 13:35 47.15593 18.70573 9219 ft 266 kts 28°
2026-04-23 13:35 47.17171 18.71983 8837 ft 260 kts 28°
2026-04-23 13:35 47.18672 18.73444 8442 ft 261 kts 38°
2026-04-23 13:35 47.19750 18.75599 8067 ft 272 kts 60°
2026-04-23 13:36 47.20144 18.77550 7810 ft 274 kts 76°
2026-04-23 13:36 47.20137 18.79840 7520 ft 277 kts 94°
2026-04-23 13:36 47.19644 18.82623 7163 ft 279 kts 96°
2026-04-23 13:36 47.19462 18.85427 6816 ft 275 kts 86°
2026-04-23 13:37 47.19387 18.88222 6548 ft 273 kts 84°
2026-04-23 13:37 47.19398 18.91028 6297 ft 272 kts 83°
2026-04-23 13:37 47.19412 18.93707 6061 ft 272 kts 83°
2026-04-23 13:37 47.19439 18.96456 5819 ft 271 kts 83°
2026-04-23 13:38 47.19463 18.99233 5574 ft 271 kts 83°
2026-04-23 13:38 47.19667 19.01919 5325 ft 262 kts 65°
2026-04-23 13:38 47.20558 19.04194 5073 ft 248 kts 40°
2026-04-23 13:38 47.21663 19.05455 4855 ft 233 kts 21°
2026-04-23 13:39 47.23091 19.06463 4589 ft 230 kts 27°
2026-04-23 13:39 47.24372 19.07882 4309 ft 226 kts 32°
2026-04-23 13:39 47.25576 19.09329 4075 ft 219 kts 35°
2026-04-23 13:39 47.26448 19.10486 3932 ft 212 kts 35°
2026-04-23 13:40 47.27536 19.11923 3694 ft 208 kts 36°
2026-04-23 13:40 47.28568 19.13319 3920 ft 197 kts 35°
2026-04-23 13:40 47.29618 19.14719 3998 ft 206 kts 35°
2026-04-23 13:40 47.30691 19.16142 3984 ft 205 kts 35°
2026-04-23 13:41 47.31746 19.17544 3982 ft 205 kts 36°
2026-04-23 13:41 47.32814 19.18968 3982 ft 205 kts 36°
2026-04-23 13:41 47.33741 19.20608 3987 ft 215 kts 59°
2026-04-23 13:41 47.34029 19.22843 4000 ft 230 kts 87°
2026-04-23 13:42 47.33593 19.25160 3998 ft 241 kts 115°
2026-04-23 13:42 47.32510 19.27031 3999 ft 246 kts 142°
2026-04-23 13:42 47.31077 19.28335 3986 ft 233 kts 147°
2026-04-23 13:42 47.29765 19.29581 3971 ft 224 kts 142°
2026-04-23 13:43 47.28575 19.31077 3996 ft 228 kts 133°
2026-04-23 13:43 47.27458 19.32747 3986 ft 228 kts 130°
2026-04-23 13:43 47.26379 19.34451 3989 ft 226 kts 129°
2026-04-23 13:43 47.25312 19.36158 3990 ft 226 kts 129°
2026-04-23 13:44 47.24259 19.37853 3986 ft 225 kts 129°
2026-04-23 13:44 47.23346 19.39663 3956 ft 220 kts 108°
2026-04-23 13:44 47.23076 19.41817 3669 ft 211 kts 78°
2026-04-23 13:44 47.23500 19.43773 3377 ft 195 kts 48°
2026-04-23 13:45 47.24459 19.45044 3078 ft 181 kts 18°
2026-04-23 13:45 47.25652 19.45455 2786 ft 176 kts
2026-04-23 13:45 47.26784 19.46196 2679 ft 175 kts 28°
2026-04-23 13:45 47.27794 19.47243 2741 ft 183 kts 30°
2026-04-23 13:46 47.28803 19.48474 2749 ft 186 kts 30°
2026-04-23 13:46 47.29940 19.49147 2676 ft 176 kts 358°
2026-04-23 13:46 47.31063 19.48741 2560 ft 164 kts 327°
2026-04-23 13:46 47.31788 19.47533 2404 ft 152 kts 303°
2026-04-23 13:47 47.32325 19.46233 2276 ft 145 kts 306°
2026-04-23 13:47 47.32877 19.44975 2185 ft 147 kts 306°
2026-04-23 13:47 47.33434 19.43705 2106 ft 148 kts 306°
2026-04-23 13:47 47.33997 19.42422 2036 ft 149 kts 306°
2026-04-23 13:48 47.34568 19.41146 1935 ft 150 kts 312°
2026-04-23 13:48 47.35309 19.40061 1928 ft 147 kts 319°
2026-04-23 13:48 47.36064 19.39099 2004 ft 140 kts 319°
2026-04-23 13:48 47.36805 19.38157 1920 ft 144 kts 320°
2026-04-23 13:49 47.37510 19.37060 1770 ft 150 kts 309°
2026-04-23 13:49 47.38151 19.35865 1598 ft 147 kts 311°
2026-04-23 13:49 47.38850 19.34784 1376 ft 146 kts 317°
2026-04-23 13:49 47.39590 19.33780 1204 ft 144 kts 317°
2026-04-23 13:50 47.40255 19.32626 975 ft 147 kts 309°
2026-04-23 13:50 47.40940 19.31532 785 ft 143 kts 314°
2026-04-23 13:50 47.41619 19.30457 623 ft 142 kts 313°
2026-04-23 13:50 47.42289 19.29391 446 ft 143 kts 313°
2026-04-23 13:51 47.42937 19.28347 429 ft 122 kts 313°
2026-04-23 13:51 47.43343 19.27695 449 ft 45 kts 312°
2026-04-23 13:51 47.43548 19.27355 460 ft 43 kts 311°
2026-04-23 13:51 47.43677 19.27137 467 ft 10 kts 302°
2026-04-23 13:52 47.43725 19.26995 470 ft 18 kts 290°
2026-04-23 13:52 47.43756 19.26824 473 ft 16 kts 282°